Location: La Fredeussais
(48.1780°N, 1.3980°W)
Time: 07:27:23
(UTC+00:00)

ITUPSAT 1 - Pass Details

Date: 23 October 2021
Orbit: 702 x 712 km, 98.6° (Epoch: 07 December)

Event Time Altitude Azimuth Distance (km) Brightness Sun altitude
Rises 05:49:25 0° 136° (SE) 3,083 ? -8.6°
Reaches altitude 10° 05:51:51 10° 127° (SE) 2,168 ? -8.2°
Maximum altitude 05:56:02 32° 65° (ENE) 1,201 ? -7.5°
Drops below altitude 10° 06:00:15 10° 3° (N) 2,180 ? -6.8°
Sets 06:02:41 0° 354° (N) 3,103 ? -6.4°
